Hourly Data Report for September 22, 2018

SHEARWATER RCS
NOVA SCOTIA
Current Station Operator: ECCC - MSC

44°37'47.000" N
63°30'48.000" W
24.00 m
8205092
71264
AAW

Download Data

Hourly Data (September 2018)
Hourly Data Report for September 22, 2018
TIME Temp Definition
°C
Dew Point Definition
°C
Rel Hum Definition
%
Wind Dir Definition
10's deg

Wind Spd Definition
km/h
Visibility Definition
km
Stn Press Definition
kPa
Hmdx Definition


Wind Chill Definition


Weather Definition


00:00 17.5 12.4 72 20 33   101.38     LegendNANA
01:00 17.9 13.1 73 19 32   101.25     LegendNANA
02:00 18.2 13.2 73 20 40   101.07     LegendNANA
03:00 18.3 14.0 76 20 36   100.92     LegendNANA
04:00 18.7 14.3 75 20 36   100.81     LegendNANA
05:00 19.3 14.8 75 20 38   100.75     LegendNANA
06:00 19.8 15.3 75 21 40   100.65     LegendNANA
07:00 19.8 16.0 79 21 37   100.61     LegendNANA
08:00 19.1 16.6 86 22 35   100.55     LegendNANA
09:00 18.8 17.1 90 23 30   100.56     LegendNANA
10:00 18.9 17.2 90 25 20   100.60     LegendNANA
11:00 19.1 16.7 86 25 11   100.65     LegendNANA
12:00 21.3 15.5 69 28 16   100.67 26   LegendNANA
13:00 21.9 12.7 56 30 25   100.73 25   LegendNANA
14:00 21.1 10.0 49 31 21   100.82     LegendNANA
15:00 20.8 9.4 48 31 21   100.92     LegendNANA
16:00 19.7 6.8 43 30 22   101.07     LegendNANA
17:00 18.7 5.8 43 32 15   101.17     LegendNANA
18:00 16.6 5.2 47 32 18   101.31     LegendNANA
19:00 15.0 4.3 49 31 14   101.44     LegendNANA
20:00 13.6 4.6 55 32 9   101.56     LegendNANA
21:00 12.9 4.9 59 33 9   101.62     LegendNANA
22:00 12.0 4.9 62 32 10   101.72     LegendNANA
23:00 11.9 4.6 61 34 13   101.83     LegendNANA

Notes on Data Quality.

Legend

  • E = Estimated
  • M = Missing
  • NA = Not Available*
  • [empty] = Indicates an unobserved value
Date modified: